TITAN 3C TRANSTAGE DEB, 36984

Orbit data source: Space-Track

TITAN 3C TRANSTAGE DEB, 36984 is space debris originally from a launch on Tue, 21 Dec 1965 UTC launched from the Air Force Eastern Test Range (AFETR). Debris objects in space refer to the collection of defunct objects orbiting the Earth. Examples of debris include non-operational satellites, rocket bodies, and fragments generated from explosions, collisions, or faulty payload assembly.

Loading next visibility...
Identifier
36984, 1965-108DQ
Orbit
Active
Country
Flag of USUS
Related business
Manufacturer
Unknown
Mission
Spacecraft
Bus & Motor
Unknown
Mass
Unknown
Launch date (UTC)
1965-12-21 (60 years ago)
Launch vehicle
Unknown
Launch site
Air Force Eastern Test Range (AFETR)
Object type
Payload
Rocket body
Debris
Shape & HBR
Unknown shape, 0.1 m
Radar Cross Section
Small (<0.1 m²)

Expand to show TLE details & history
Last TLE update: 1 day ago

TLE from 1 day ago
0 TITAN 3C TRANSTAGE DEB
1 36984U 65108DQ  26132.94894029  .00000624  00000-0  12519-2 0  9991
2 36984  26.4442 358.4704 4097476  65.8192 331.3105  6.77714810639828
Epoch: 2026-05-12T22:46Z
TLE epoch observation values (Epoch: 2026-05-12T22:46:28.441Z)
Latitude
0.00003°
Longitude
146.13597°
Altitude
2,022.556 km
Speed
7.817 km/s
True Right ascension
23h 53m 52s
True Declination
0° 00' 00"
Sunlit
Object was in daylight at epoch
Visualization orbit readout
Latitude
Unknown
Longitude
Unknown
Altitude
Unknown
Speed
Unknown
Apparent Right ascension
Unknown
Apparent Declination
Unknown
Sunlit
N/A
Visualization observer readout
Local Sidereal Time
08:02:23
Azimuth
Unknown
Elevation
Unknown
Doppler factor
Unknown
Orbital elements
Apogee altitude
10,254.945 km
Perigee altitude
586.029 km
Semi-major axis
11,798.624 km
Eccentricity
0.40975
Inclination
26.4442°
RAAN
358.4704°
Arg. of periapsis
65.8192°
True anomaly
294.22694°
Mean anomaly
331.3105°
Eccentric anomaly
314.59214°
Mean motion
1.69354 °/min
Orbital period
212.57 mins
BSTAR
0.0012519
Loading maneuver chart data...
Computing Atmospheric mass density...

Documentation

Showing up to 5 results
|